Location: Torch Lake Township
(45.0753°N, 85.3586°W)
Time: 00:27:03
(UTC-05:00)

Amateur Radio Satellites - All Passes

Search period start: 26 November 2014 23:57
Search period end: 27 November 2014 23:57
Location: Torch Lake Township, 45.0753°N, 85.3586°W

Satellite Date Start Highest point End Downlink Frequencies (MHz)
Time Altitude Azimuth
MaSat-1 27 Nov 00:06:54 00:08:41 19° 56° (NE) 00:10:31 437.345
ITUPSAT 1 27 Nov 00:14:36 00:18:25 24° 64° (ENE) 00:22:14 437.325
CUSAT 1 27 Nov 00:15:27 00:20:03 86° 80° (E) 00:26:18 437.405
ANTELSAT 27 Nov 00:16:24 00:20:26 35° 291° (WNW) 00:24:34 437.575/2403.000
ISS 27 Nov 00:18:19 00:21:36 77° 148° (SSE) 00:24:53 145.825
POLYITAN 1 27 Nov 00:23:33 00:27:30 39° 290° (WNW) 00:31:26 437.675
SWISSCUBE 27 Nov 00:24:40 00:28:53 31° 66° (ENE) 00:33:08 437.505
QB50P2 27 Nov 00:25:13 00:29:08 37° 290° (WNW) 00:33:02 145.880/145.840
DUCHIFAT 1 27 Nov 00:30:43 00:34:32 33° 291° (WNW) 00:38:19 145.980
AUBIESAT-1 27 Nov 00:31:37 00:35:42 58° 67° (ENE) 00:40:10 437.475
ESTCUBE 1 27 Nov 00:35:32 00:37:19 12° 272° (W) 00:39:06 437.505/2401.250
M-CUBED/EXP-1 PRIME 27 Nov 00:37:30 00:41:36 73° 69° (ENE) 00:46:08 437.505
TISAT 1 27 Nov 00:38:13 00:42:07 34° 263° (W) 00:46:02 437.305
DANDE 27 Nov 00:45:35 00:49:59 61° 261° (W) 00:55:57 436.750
NANOSAT C BR1 27 Nov 00:50:44 00:54:00 22° 295° (WNW) 00:57:14 145.865
SPROUT 27 Nov 00:51:12 00:55:00 30° 264° (W) 00:58:49 437.525
BEESAT 27 Nov 00:54:58 00:59:39 55° 71° (ENE) 01:04:21 436.000
QB50P1 27 Nov 01:01:06 01:03:57 18° 297° (WNW) 01:06:47 145.935-145.965
Oscar 19 27 Nov 01:06:27 01:09:42 17° 90° (E) 01:12:55 437.125/150
BUGSAT 1 27 Nov 01:06:45 01:09:29 18° 297° (WNW) 01:12:12 437.445
KKS-1 27 Nov 01:07:52 01:10:45 17° 62° (ENE) 01:13:38 437.445
TIGRISAT 27 Nov 01:11:56 01:13:34 12° 301° (WNW) 01:15:13 435.000
RS-15 27 Nov 01:13:36 01:24:51 83° 54° (NE) 01:36:36 29.354- 29.394
POPSAT HIP 1 27 Nov 01:27:53 01:28:37 10° 302° (WNW) 01:29:22 437.405
MaSat-1 27 Nov 01:42:22 01:43:00 11° 251° (WSW) 01:43:37 437.345
ITUPSAT 1 27 Nov 01:51:27 01:56:03 44° 261° (W) 02:00:41 437.325
ISS 27 Nov 01:55:31 01:58:29 30° 347° (NNW) 02:01:28 145.825
STARS 27 Nov 02:00:08 02:04:10 37° 69° (ENE) 02:08:13 437.465
CUSAT 1 27 Nov 02:00:57 02:03:00 12° 270° (W) 02:05:15 437.405
ITAMSAT 1 27 Nov 02:01:19 02:05:09 21° 92° (E) 02:08:57 435.822/435.867
SWISSCUBE 27 Nov 02:02:25 02:06:42 32° 264° (W) 02:11:02 437.505
AUBIESAT-1 27 Nov 02:08:42 02:11:10 15° 266° (W) 02:13:45 437.475
YUBILEINY 27 Nov 02:13:13 02:21:12 41° 86° (E) 02:29:10 435.215
M-CUBED/EXP-1 PRIME 27 Nov 02:15:40 02:17:18 12° 268° (W) 02:18:59 437.505
BEESAT 27 Nov 02:34:35 02:37:50 18° 269° (W) 02:41:07 436.000
Gurwin Techsat 1B 27 Nov 02:38:58 02:43:28 27° 94° (E) 02:47:56 435.225
KKS-1 27 Nov 02:42:36 02:46:59 56° 259° (W) 02:51:22 437.445
Oscar 19 27 Nov 02:44:23 02:49:31 68° 287° (WNW) 02:54:39 437.125/150
BEESAT 3 27 Nov 03:04:53 03:06:22 12° 30° (NNE) 03:07:52 437.485
SO-50 27 Nov 03:05:38 03:08:38 18° 110° (ESE) 03:11:42 436.795
BEESAT 2 27 Nov 03:20:44 03:22:55 14° 33° (NNE) 03:25:06 435.950
AO-7 27 Nov 03:22:09 03:26:57 16° 87° (E) 03:31:43 29.400- 29.500
RS-15 27 Nov 03:26:58 03:36:05 30° 256° (WSW) 03:45:32 29.354- 29.394
ISS 27 Nov 03:32:54 03:35:46 27° 8° (N) 03:38:37 145.825
STARS 27 Nov 03:37:16 03:40:46 23° 266° (W) 03:44:17 437.465
PCSat 27 Nov 03:38:28 03:42:58 26° 42° (NE) 03:47:26 145.827
ITAMSAT 1 27 Nov 03:39:55 03:44:59 55° 290° (WNW) 03:50:00 435.822/435.867
HORYU 2 27 Nov 03:49:30 03:53:55 53° 100° (E) 03:58:19 437.375
MOZHAYETS 4 27 Nov 03:55:22 03:59:12 27° 66° (ENE) 04:03:04
AIST 2 27 Nov 03:59:42 04:02:25 16° 35° (NE) 04:05:07 435.215
YUBILEINY 27 Nov 04:09:23 04:17:50 49° 287° (WNW) 04:26:18 435.215
Gurwin Techsat 1B 27 Nov 04:18:34 04:23:35 43° 292° (WNW) 04:28:33 435.225
Oscar 19 27 Nov 04:26:52 04:27:54 11° 306° (NW) 04:28:56 437.125/150
BEESAT 3 27 Nov 04:41:24 04:45:33 54° 51° (NE) 04:49:38 437.485
SO-50 27 Nov 04:44:11 04:48:41 62° 309° (NW) 04:53:21 436.795
PRISM 27 Nov 04:44:18 04:47:01 17° 62° (ENE) 04:49:44 437.425
BEESAT 2 27 Nov 04:57:46 05:01:59 71° 53° (NE) 05:06:09 435.950
STRAND 1 27 Nov 05:02:19 05:04:47 14° 56° (ENE) 05:07:15 437.568
ISS 27 Nov 05:09:31 05:12:48 69° 27° (NNE) 05:16:05 145.825
AO-7 27 Nov 05:12:39 05:21:04 77° 107° (ESE) 05:29:26 29.400- 29.500
PCSat 27 Nov 05:21:27 05:26:50 64° 243° (WSW) 05:32:10 145.827
HORYU 2 27 Nov 05:27:10 05:30:13 18° 298° (WNW) 05:33:16 437.375
JAS-2 27 Nov 05:28:20 05:35:04 44° 95° (E) 05:41:01 435.910
MOZHAYETS 4 27 Nov 05:32:04 05:36:17 35° 264° (W) 05:40:33
AIST 2 27 Nov 05:37:22 05:41:43 87° 55° (NE) 05:45:59 435.215
CUBESAT XI-V 27 Nov 05:40:03 05:43:53 25° 65° (ENE) 05:47:45 437.345
O/OREOS (USA 219) 27 Nov 05:53:01 05:57:06 36° 106° (ESE) 06:01:13 437.305
YUBILEINY 27 Nov 06:15:40 06:17:20 11° 312° (NW) 06:19:00 435.215
PRISM 27 Nov 06:18:04 06:22:10 52° 260° (W) 06:26:20 437.425
BEESAT 3 27 Nov 06:20:36 06:23:23 17° 249° (WSW) 06:26:08 437.485
SO-50 27 Nov 06:27:38 06:30:13 15° 331° (NNW) 06:32:51 436.795
Cubesat XI-IV 27 Nov 06:28:10 06:33:01 34° 96° (E) 06:37:49 437.490
BEESAT 2 27 Nov 06:37:42 06:39:43 13° 251° (WSW) 06:41:44 435.950
STRAND 1 27 Nov 06:38:03 06:43:12 87° 75° (ENE) 06:48:23 437.568
AIST 1 27 Nov 06:38:51 06:42:58 38° 75° (ENE) 06:47:02
ISS 27 Nov 06:46:45 06:49:09 19° 224° (SW) 06:51:33 145.825
AO-7 27 Nov 07:06:18 07:13:06 29° 308° (NW) 07:19:55 29.400- 29.500
CUTE-I 27 Nov 07:08:56 07:14:17 77° 104° (ESE) 07:19:35 437.470
JAS-2 27 Nov 07:13:30 07:20:00 38° 297° (WNW) 07:25:49 435.910
CUBESAT XI-V 27 Nov 07:16:43 07:21:08 39° 263° (W) 07:25:35 437.345
AIST 2 27 Nov 07:18:35 07:19:39 11° 253° (WSW) 07:20:42 435.215
O/OREOS (USA 219) 27 Nov 07:32:48 07:36:35 26° 305° (NW) 07:40:23 437.305
GONETS M04 27 Nov 08:03:18 08:11:28 45° 87° (E) 08:19:42
Cubesat XI-IV 27 Nov 08:08:18 08:13:05 35° 294° (WNW) 08:17:50 437.490
HO-68 27 Nov 08:11:27 08:15:31 16° 87° (E) 08:19:34 435.675
AIST 1 27 Nov 08:17:10 08:20:21 20° 273° (W) 08:23:31
STRAND 1 27 Nov 08:20:58 08:23:04 12° 272° (W) 08:25:10 437.568
CANX-2 27 Nov 08:26:09 08:27:51 12° 89° (E) 08:29:32 2200.000
CUTE-I 27 Nov 08:50:23 08:53:44 17° 302° (WNW) 08:57:04 437.470
CUTE 1.7 + AOD 2 27 Nov 08:59:07 09:02:40 25° 94° (E) 09:06:13 437.475
TIGRISAT 27 Nov 09:01:10 09:02:14 11° 59° (ENE) 09:03:18 435.000
POPSAT HIP 1 27 Nov 09:12:47 09:13:08 10° 58° (ENE) 09:13:28 437.405
UNISAT 6 27 Nov 09:14:03 09:16:30 15° 61° (ENE) 09:18:57 437.425
GOMX 1 27 Nov 09:27:38 09:31:25 33° 97° (E) 09:35:17 467.674
SEEDS 27 Nov 09:30:01 09:34:08 45° 99° (E) 09:38:15 437.485
UKube-1 27 Nov 09:31:10 09:33:47 16° 91° (E) 09:36:24 .
Oscar 11 27 Nov 09:40:40 09:44:12 24° 94° (E) 09:47:42 145.826/435.025
ANTELSAT 27 Nov 09:41:35 09:45:12 28° 67° (ENE) 09:48:50 437.575/2403.000
DELFI C3 27 Nov 09:43:02 09:46:10 21° 93° (E) 09:49:18 145.870
POLYITAN 1 27 Nov 09:43:59 09:47:12 21° 65° (ENE) 09:50:25 437.675
AAUSAT CUBESAT 2 27 Nov 09:44:04 09:48:12 48° 99° (E) 09:52:18 437.432
QB50P2 27 Nov 09:45:22 09:48:38 22° 65° (ENE) 09:51:55 145.880/145.840
DUCHIFAT 1 27 Nov 09:50:19 09:53:44 24° 66° (ENE) 09:57:09 145.980
SO-50 27 Nov 09:55:08 09:55:59 10° 21° (NNE) 09:56:49 436.795
HO-68 27 Nov 09:57:02 10:04:17 83° 106° (ESE) 10:11:26 435.675
GONETS M04 27 Nov 09:59:58 10:08:17 45° 288° (WNW) 10:16:43
CANX-2 27 Nov 09:59:58 10:04:15 68° 286° (WNW) 10:08:32 2200.000
COMPASS 1 27 Nov 10:00:16 10:04:33 83° 104° (ESE) 10:08:48 437.405
BRITE-PL 27 Nov 10:03:05 10:07:14 72° 285° (WNW) 10:11:25 437.365/2234.400
UWE-3 27 Nov 10:05:12 10:08:34 22° 94° (E) 10:11:58 435.000/436.395/437.385
DX 1 27 Nov 10:07:03 10:11:07 37° 98° (E) 10:15:08 434.975-435.025
CUBEBUG 2 27 Nov 10:07:40 10:11:19 27° 95° (E) 10:15:01 437.445
NANOSAT C BR1 27 Nov 10:09:22 10:13:17 37° 70° (ENE) 10:17:12 145.865
HUMSAT D 27 Nov 10:10:57 10:12:59 13° 90° (E) 10:15:00 437.325/437.525
DOVE 4 27 Nov 10:16:49 10:21:01 86° 103° (ESE) 10:25:19 437.250
QB50P1 27 Nov 10:19:16 10:23:21 47° 71° (ENE) 10:27:26 145.935-145.965
BUGSAT 1 27 Nov 10:22:32 10:26:34 43° 71° (ENE) 10:30:34 437.445
TIGRISAT 27 Nov 10:34:05 10:38:20 86° 256° (WSW) 10:42:37 435.000
CUTE 1.7 + AOD 2 27 Nov 10:34:48 10:38:38 33° 291° (WNW) 10:42:29 437.475
ZACube-1 27 Nov 10:36:40 10:40:41 40° 98° (E) 10:44:46 437.345
CINEMA 3 27 Nov 10:42:19 10:46:33 83° 284° (WNW) 10:50:54 145.822/145.860
VELOX 1 27 Nov 10:43:11 10:47:04 29° 96° (E) 10:50:56 145.980
POPSAT HIP 1 27 Nov 10:44:05 10:48:20 87° 76° (ENE) 10:52:37 437.405
ESTCUBE 1 27 Nov 10:48:02 10:50:23 14° 89° (E) 10:52:44 437.505/2401.250
UNISAT 6 27 Nov 10:48:39 10:52:51 59° 259° (W) 10:57:05 437.425
UKube-1 27 Nov 11:06:03 11:10:17 53° 288° (WNW) 11:14:30 .
GOMX 1 27 Nov 11:06:10 11:09:26 23° 294° (WNW) 11:12:45 467.674
SEEDS 27 Nov 11:06:40 11:09:40 19° 296° (WNW) 11:12:40 437.485
AISAT 27 Nov 11:10:02 11:14:24 57° 101° (E) 11:18:45 437.250
FUNcube-1 27 Nov 11:11:12 11:15:27 86° 284° (WNW) 11:19:46 145.935
Oscar 11 27 Nov 11:16:29 11:20:27 35° 291° (WNW) 11:24:24 145.826/435.025
DELFI C3 27 Nov 11:17:47 11:21:36 37° 290° (WNW) 11:25:24 145.870
CUBEBUG 1 27 Nov 11:17:58 11:21:38 26° 95° (E) 11:25:15 437.445
ANTELSAT 27 Nov 11:18:15 11:21:58 29° 264° (W) 11:25:42 437.575/2403.000
POLYITAN 1 27 Nov 11:18:57 11:22:56 39° 262° (W) 11:26:56 437.675
QB50P2 27 Nov 11:20:24 11:24:22 37° 262° (W) 11:28:20 145.880/145.840
AAUSAT CUBESAT 2 27 Nov 11:20:42 11:23:32 18° 296° (WNW) 11:26:21 437.432
50 SAT 27 Nov 11:24:00 11:28:03 68° 102° (ESE) 11:32:08 437.505
DUCHIFAT 1 27 Nov 11:25:35 11:29:27 34° 263° (W) 11:33:20 145.980
SO-50 27 Nov 11:33:34 11:38:00 34° 44° (NE) 11:42:27 436.795
COMPASS 1 27 Nov 11:38:20 11:39:39 11° 300° (WNW) 11:40:58 437.405
UWE-3 27 Nov 11:41:20 11:45:13 36° 290° (WNW) 11:49:09 435.000/436.395/437.385
DX 1 27 Nov 11:43:44 11:47:10 23° 295° (WNW) 11:50:35 434.975-435.025
CUBEBUG 2 27 Nov 11:44:20 11:48:01 30° 292° (WNW) 11:51:46 437.445
HUMSAT D 27 Nov 11:45:04 11:49:10 59° 287° (WNW) 11:53:19 437.325/437.525
HO-68 27 Nov 11:45:52 11:51:11 23° 306° (NW) 11:56:29 435.675
NANOSAT C BR1 27 Nov 11:46:01 11:49:18 21° 266° (W) 11:52:34 145.865
QB50P1 27 Nov 11:56:43 11:59:31 17° 268° (W) 12:02:18 145.935-145.965
DOVE 4 27 Nov 11:57:37 11:58:11 10° 301° (WNW) 11:58:46 437.250
BUGSAT 1 27 Nov 11:59:15 12:02:15 19° 267° (W) 12:05:16 437.445
ZACube-1 27 Nov 12:13:42 12:16:51 21° 295° (WNW) 12:20:02 437.345
VELOX 1 27 Nov 12:19:47 12:23:37 29° 293° (WNW) 12:27:25 145.980
YUBILEINY 27 Nov 12:20:48 12:27:18 23° 60° (ENE) 12:33:45 435.215
TISAT 1 27 Nov 12:21:20 12:25:06 31° 96° (E) 12:28:50 437.305
ESTCUBE 1 27 Nov 12:23:12 12:27:44 65° 287° (WNW) 12:32:12 437.505/2401.250
Oscar 19 27 Nov 12:24:57 12:29:20 30° 65° (ENE) 12:33:45 437.125/150
SPROUT 27 Nov 12:35:40 12:39:43 40° 98° (E) 12:43:44 437.525
AISAT 27 Nov 12:47:49 12:50:37 17° 299° (WNW) 12:53:24 437.250
CUBEBUG 1 27 Nov 12:54:09 12:58:03 32° 292° (WNW) 13:01:54 437.445
BEESAT 27 Nov 12:55:31 12:57:25 12° 88° (E) 12:59:18 436.000
50 SAT 27 Nov 13:01:07 13:02:51 13° 299° (WNW) 13:04:36 437.505
SO-50 27 Nov 13:14:05 13:18:38 40° 242° (WSW) 13:23:12 436.795
ITAMSAT 1 27 Nov 13:20:56 13:25:45 39° 67° (ENE) 13:30:33 435.822/435.867
CUSAT 1 27 Nov 13:32:23 13:35:00 77° 281° (W) 13:37:39 437.405
AUBIESAT-1 27 Nov 13:47:16 13:51:53 39° 102° (ESE) 13:56:22 437.475
ITUPSAT 1 27 Nov 13:50:07 13:54:40 41° 98° (E) 13:59:11 437.325
M-CUBED/EXP-1 PRIME 27 Nov 13:53:30 13:58:19 49° 104° (ESE) 14:02:59 437.505
TISAT 1 27 Nov 13:57:22 14:00:50 25° 294° (WNW) 14:04:18 437.305
SWISSCUBE 27 Nov 14:00:20 14:05:04 56° 101° (E) 14:09:46 437.505
Gurwin Techsat 1B 27 Nov 14:01:51 14:06:58 52° 70° (ENE) 14:12:07 435.225
Oscar 19 27 Nov 14:03:50 14:08:33 38° 263° (W) 14:13:20 437.125/150
DANDE 27 Nov 14:05:37 14:07:59 28° 285° (WNW) 14:10:19 436.750
SPROUT 27 Nov 14:12:21 14:15:34 21° 295° (WNW) 14:18:47 437.525
YUBILEINY 27 Nov 14:16:35 14:25:21 88° 263° (W) 14:34:02 435.215
O/OREOS (USA 219) 27 Nov 14:22:38 14:25:02 14° 48° (NE) 14:27:26 437.305
AO-7 27 Nov 14:22:53 14:29:49 31° 54° (NE) 14:36:47 29.400- 29.500
BEESAT 27 Nov 14:31:02 14:35:52 80° 286° (WNW) 14:40:38 436.000
KKS-1 27 Nov 14:32:26 14:36:02 24° 94° (E) 14:39:38 437.445
HORYU 2 27 Nov 14:50:01 14:54:23 63° 73° (ENE) 14:58:48 437.375
ITAMSAT 1 27 Nov 15:00:46 15:05:18 30° 265° (W) 15:09:51 435.822/435.867
PHONESAT 2.4 27 Nov 15:08:59 15:11:59 23° 160° (SSE) 15:15:00 2401.200-2431.200
MaSat-1 27 Nov 15:10:20 15:13:06 40° 115° (ESE) 15:15:39 437.345
VERMONT LUNAR 27 Nov 15:13:11 15:16:20 28° 164° (SSE) 15:19:30 437.305
AUBIESAT-1 27 Nov 15:22:27 15:26:42 30° 300° (WNW) 15:30:52 437.475
STARS 27 Nov 15:24:18 15:28:38 56° 101° (E) 15:32:57 437.465
ITUPSAT 1 27 Nov 15:28:26 15:32:22 25° 296° (WNW) 15:36:16 437.325
M-CUBED/EXP-1 PRIME 27 Nov 15:29:03 15:33:03 25° 301° (WNW) 15:36:59 437.505
SWISSCUBE 27 Nov 15:39:09 15:42:31 19° 299° (WNW) 15:45:53 437.505
RS-15 27 Nov 15:40:13 15:50:09 42° 109° (ESE) 16:00:04 29.354- 29.394
JAS-2 27 Nov 15:41:23 15:47:52 30° 59° (ENE) 15:54:22 435.910
Gurwin Techsat 1B 27 Nov 15:43:07 15:47:14 23° 268° (W) 15:51:22 435.225
O/OREOS (USA 219) 27 Nov 16:00:34 16:05:03 82° 247° (WSW) 16:09:32 437.305
KKS-1 27 Nov 16:08:43 16:12:46 36° 291° (WNW) 16:16:49 437.445
BEESAT 27 Nov 16:11:25 16:12:54 11° 304° (NW) 16:14:23 436.000
AO-7 27 Nov 16:13:42 16:21:58 72° 254° (WSW) 16:30:19 29.400- 29.500
YUBILEINY 27 Nov 16:15:18 16:20:50 19° 284° (WNW) 16:26:21 435.215
Cubesat XI-IV 27 Nov 16:16:37 16:18:17 11° 54° (NE) 16:19:58 437.490
HORYU 2 27 Nov 16:29:15 16:31:31 14° 270° (W) 16:33:47 437.375
PHONESAT 2.4 27 Nov 16:46:49 16:50:20 40° 177° (S) 16:53:51 2401.200-2431.200
VERMONT LUNAR 27 Nov 16:51:00 16:54:25 40° 181° (S) 16:57:51 437.305
CUTE-I 27 Nov 16:54:34 16:58:41 23° 61° (ENE) 17:02:49 437.470
STARS 27 Nov 17:01:55 17:04:43 17° 298° (WNW) 17:07:30 437.465
JAS-2 27 Nov 17:24:33 17:32:14 71° 258° (WSW) 17:40:07 435.910
MOZHAYETS 4 27 Nov 17:24:56 17:29:27 47° 99° (E) 17:33:56
RS-15 27 Nov 17:51:12 18:02:01 64° 313° (NW) 18:12:58 29.354- 29.394
Cubesat XI-IV 27 Nov 17:52:05 17:57:25 69° 72° (ENE) 18:02:45 437.490
PRISM 27 Nov 18:00:09 18:03:15 19° 93° (E) 18:06:19 437.425
GONETS M04 27 Nov 18:11:01 18:18:02 25° 62° (ENE) 18:24:58
AO-7 27 Nov 18:12:10 18:16:13 14° 274° (W) 18:20:19 29.400- 29.500
PHONESAT 2.4 27 Nov 18:25:25 18:28:45 31° 194° (SSW) 18:32:05 2401.200-2431.200
PCSat 27 Nov 18:25:49 18:27:37 12° 102° (ESE) 18:29:26 145.827
VERMONT LUNAR 27 Nov 18:29:26 18:32:29 25° 198° (SSW) 18:35:31 437.305
CUTE-I 27 Nov 18:33:08 18:38:23 55° 259° (W) 18:43:39 437.470
HO-68 27 Nov 18:43:14 18:47:42 18° 50° (NE) 18:52:09 435.675
STRAND 1 27 Nov 18:47:15 18:51:26 25° 94° (E) 18:55:35 437.568
MOZHAYETS 4 27 Nov 19:02:52 19:06:22 21° 296° (WNW) 19:09:51
AIST 1 27 Nov 19:11:20 19:14:40 22° 87° (E) 19:18:02
CUBESAT XI-V 27 Nov 19:11:25 19:15:54 45° 98° (E) 19:20:20 437.345
JAS-2 27 Nov 19:14:33 19:18:32 15° 278° (W) 19:22:34 435.910
CANX-2 27 Nov 19:22:05 19:23:50 12° 60° (ENE) 19:25:36 2200.000
Cubesat XI-IV 27 Nov 19:34:35 19:38:01 17° 270° (W) 19:41:28 437.490
PRISM 27 Nov 19:34:59 19:38:59 41° 290° (WNW) 19:42:56 437.425
BRITE-PL 27 Nov 19:39:01 19:42:23 19° 65° (ENE) 19:45:36 437.365/2234.400
AIST 2 27 Nov 19:40:41 19:42:04 11° 108° (ESE) 19:43:28 435.215
DOVE 4 27 Nov 19:49:57 19:51:54 13° 61° (ENE) 19:53:49 437.250
CUTE 1.7 + AOD 2 27 Nov 19:54:35 19:57:57 24° 66° (ENE) 20:01:21 437.475
PCSat 27 Nov 20:04:43 20:10:07 80° 120° (ESE) 20:15:34 145.827
PHONESAT 2.4 27 Nov 20:05:20 20:06:53 12° 210° (SSW) 20:08:25 2401.200-2431.200
GONETS M04 27 Nov 20:07:04 20:15:56 80° 265° (W) 20:24:41
RS-15 27 Nov 20:07:50 20:17:04 30° 344° (NNW) 20:26:30 29.354- 29.394
CINEMA 3 27 Nov 20:12:07 20:14:00 13° 61° (ENE) 20:15:53 145.822/145.860
BEESAT 3 27 Nov 20:16:03 20:20:04 55° 121° (ESE) 20:24:10 437.485
SEEDS 27 Nov 20:24:31 20:28:27 41° 71° (ENE) 20:32:26 437.485
STRAND 1 27 Nov 20:25:58 20:30:49 44° 291° (WNW) 20:35:37 437.568
HO-68 27 Nov 20:27:06 20:34:16 76° 70° (ENE) 20:41:29 435.675
UKube-1 27 Nov 20:28:27 20:31:30 19° 63° (ENE) 20:34:34 .
BEESAT 2 27 Nov 20:32:57 20:37:04 75° 123° (ESE) 20:41:16 435.950
DELFI C3 27 Nov 20:34:27 20:37:16 18° 64° (ENE) 20:40:07 145.870
FUNcube-1 27 Nov 20:36:58 20:37:47 11° 59° (ENE) 20:38:37 145.935
AAUSAT CUBESAT 2 27 Nov 20:37:30 20:41:26 43° 71° (ENE) 20:45:24 437.432
GOMX 1 27 Nov 20:37:43 20:42:13 49° 72° (ENE) 20:46:28 467.674
Oscar 11 27 Nov 20:37:47 20:41:15 24° 66° (ENE) 20:44:45 145.826/435.025
AIST 1 27 Nov 20:48:01 20:52:06 37° 285° (WNW) 20:56:13
CUBESAT XI-V 27 Nov 20:49:29 20:53:04 22° 296° (WNW) 20:56:36 437.345
COMPASS 1 27 Nov 20:53:54 20:58:03 74° 75° (ENE) 21:02:15 437.405
CANX-2 27 Nov 20:54:59 20:59:12 74° 258° (WSW) 21:03:27 2200.000
DX 1 27 Nov 21:04:38 21:08:47 43° 70° (ENE) 21:12:56 434.975-435.025
UWE-3 27 Nov 21:05:04 21:08:25 24° 66° (ENE) 21:11:46 435.000/436.395/437.385
HUMSAT D 27 Nov 21:06:07 21:08:07 13° 61° (ENE) 21:10:06 437.325/437.525
CUBEBUG 2 27 Nov 21:08:31 21:12:11 29° 68° (ENE) 21:15:48 437.445
AIST 2 27 Nov 21:15:48 21:20:02 83° 306° (NW) 21:24:22 435.215
BRITE-PL 27 Nov 21:15:49 21:20:37 52° 260° (W) 21:25:06 437.365/2234.400
DOVE 4 27 Nov 21:24:39 21:29:12 74° 258° (WSW) 21:33:31 437.250
CUTE 1.7 + AOD 2 27 Nov 21:29:54 21:33:44 34° 263° (W) 21:37:36 437.475
ZACube-1 27 Nov 21:35:07 21:39:03 41° 71° (ENE) 21:42:58 437.345
VELOX 1 27 Nov 21:43:05 21:47:08 35° 68° (ENE) 21:51:13 145.980
CINEMA 3 27 Nov 21:46:24 21:50:44 70° 258° (WSW) 21:54:57 145.822/145.860
ESTCUBE 1 27 Nov 21:49:51 21:52:55 18° 62° (ENE) 21:55:59 437.505/2401.250
PCSat 27 Nov 21:50:03 21:54:11 22° 320° (NW) 21:58:21 145.827
BEESAT 3 27 Nov 21:55:24 21:58:37 21° 320° (NW) 22:01:52 437.485
SEEDS 27 Nov 22:01:31 22:04:29 19° 268° (W) 22:07:29 437.485
UKube-1 27 Nov 22:03:08 22:07:20 48° 260° (W) 22:11:35 .
GONETS M04 27 Nov 22:06:09 22:11:14 17° 286° (WNW) 22:16:19
DELFI C3 27 Nov 22:08:24 22:12:17 43° 262° (W) 22:16:12 145.870
FUNcube-1 27 Nov 22:09:20 22:13:31 85° 257° (WSW) 22:17:42 145.935
AISAT 27 Nov 22:10:08 22:14:34 68° 74° (ENE) 22:19:02 437.250
BEESAT 2 27 Nov 22:12:58 22:15:52 18° 323° (NW) 22:18:46 435.950
Oscar 11 27 Nov 22:13:21 22:17:16 34° 263° (W) 22:21:14 145.826/435.025
AAUSAT CUBESAT 2 27 Nov 22:14:30 22:17:20 18° 268° (W) 22:20:13 437.432
50 SAT 27 Nov 22:14:52 22:18:48 56° 73° (ENE) 22:22:46 437.505
CUBEBUG 1 27 Nov 22:16:20 22:20:10 29° 67° (ENE) 22:24:01 437.445
HO-68 27 Nov 22:17:19 22:22:40 22° 269° (W) 22:28:04 435.675
GOMX 1 27 Nov 22:17:23 22:20:34 18° 267° (W) 22:23:39 467.674
RS-15 27 Nov 22:24:21 22:33:52 31° 19° (NNE) 22:43:39 29.354- 29.394
TIGRISAT 27 Nov 22:24:47 22:27:45 17° 92° (E) 22:30:44 435.000
CUSAT 1 27 Nov 22:25:56 22:27:32 11° 67° (ENE) 22:29:16 437.405
POPSAT HIP 1 27 Nov 22:29:44 22:31:30 12° 89° (E) 22:33:16 437.405
COMPASS 1 27 Nov 22:33:31 22:34:19 10° 272° (W) 22:35:08 437.405
UNISAT 6 27 Nov 22:39:02 22:42:42 24° 94° (E) 22:46:24 437.425
HUMSAT D 27 Nov 22:39:21 22:43:26 64° 259° (WSW) 22:47:33 437.325/437.525
UWE-3 27 Nov 22:41:03 22:44:51 32° 263° (W) 22:48:38 435.000/436.395/437.385
DX 1 27 Nov 22:42:01 22:45:13 20° 267° (W) 22:48:26 434.975-435.025
CUBEBUG 2 27 Nov 22:45:20 22:48:54 26° 265° (W) 22:52:26 437.445
AIST 2 27 Nov 22:56:46 22:59:22 16° 326° (NW) 23:01:59 435.215
DANDE 27 Nov 22:59:02 23:02:19 19° 72° (ENE) 23:06:15 436.750
POLYITAN 1 27 Nov 23:03:00 23:06:41 28° 96° (E) 23:10:21 437.675
QB50P2 27 Nov 23:04:10 23:07:54 29° 96° (E) 23:11:36 145.880/145.840
ANTELSAT 27 Nov 23:07:34 23:11:54 47° 99° (E) 23:16:18 437.575/2403.000
DUCHIFAT 1 27 Nov 23:08:49 23:12:37 32° 97° (E) 23:16:24 145.980
ZACube-1 27 Nov 23:12:42 23:15:38 18° 268° (W) 23:18:34 437.345
M-CUBED/EXP-1 PRIME 27 Nov 23:13:33 23:15:12 12° 50° (NE) 23:16:52 437.505
TISAT 1 27 Nov 23:16:04 23:19:51 32° 68° (ENE) 23:23:39 437.305
VELOX 1 27 Nov 23:20:07 23:23:48 25° 265° (W) 23:27:30 145.980
ESTCUBE 1 27 Nov 23:24:55 23:29:23 55° 260° (W) 23:33:53 437.505/2401.250
NANOSAT C BR1 27 Nov 23:28:22 23:32:30 52° 100° (E) 23:36:37 145.865
ISS 27 Nov 23:28:40 23:31:49 45° 143° (SE) 23:34:59 145.825
SPROUT 27 Nov 23:31:57 23:35:59 40° 70° (ENE) 23:40:02 437.525
SWISSCUBE 27 Nov 23:35:06 23:36:40 12° 56° (NE) 23:38:14 437.505
QB50P1 27 Nov 23:38:31 23:42:44 69° 102° (ESE) 23:46:56 145.935-145.965
BUGSAT 1 27 Nov 23:38:37 23:42:39 55° 101° (E) 23:46:36 437.445
AISAT 27 Nov 23:49:34 23:51:40 13° 270° (W) 23:53:47 437.250
50 SAT 27 Nov 23:52:39 23:54:29 13° 270° (W) 23:56:20 437.505
